• In Czech Republic
  • List of Countries
  • For 7 days
  • Water Temperature
  • Satellite Maps
  • Weather Map
  • Weather Widgets
  • user-avatar
    Login

    Hourly Weather Aranda de Duero

    Today, 25 September, Tuesday

    Time Temperature Precipitation Wind Pressure Humidity
    00:00 +12°C° 0 mm 3 mps 698 mmHg 53%
    01:00 +11°C° 0 mm 3 mps 698 mmHg 53%
    02:00 +11°C° 0 mm 3 mps 698 mmHg 53%
    03:00 +12°C° 0 mm 2 mps 698 mmHg 52%
    04:00 +10°C° 0 mm 2 mps 698 mmHg 52%
    05:00 +10°C° 0 mm 2 mps 698 mmHg 52%
    06:00 +10°C° 0 mm 2 mps 697 mmHg 51%
    07:00 +14°C° 0 mm 2 mps 698 mmHg 45%
    08:00 +16°C° 0 mm 2 mps 698 mmHg 38%
    09:00 +19°C° 0 mm 2 mps 699 mmHg 31%
    10:00 +21°C° 0 mm 2 mps 699 mmHg 28%
    11:00 +24°C° 0 mm 2 mps 699 mmHg 24%
    12:00 +27°C° 0 mm 1 mps 699 mmHg 20%
    13:00 +27°C° 0 mm 1 mps 699 mmHg 20%
    14:00 +28°C° 0 mm 1 mps 698 mmHg 19%
    15:00 +29°C° 0 mm 2 mps 698 mmHg 19%
    16:00 +27°C° 0 mm 2 mps 698 mmHg 23%
    17:00 +25°C° 0 mm 2 mps 698 mmHg 27%
    18:00 +22°C° 0 mm 3 mps 697 mmHg 31%
    19:00 +21°C° 0 mm 3 mps 698 mmHg 36%
    20:00 +20°C° 0 mm 4 mps 698 mmHg 40%
    21:00 +18°C° 0 mm 4 mps 698 mmHg 44%
    22:00 +18°C° 0 mm 4 mps 698 mmHg 48%
    23:00 +18°C° 0 mm 4 mps 698 mmHg 53%

    Tomorrow, 26 September, Wednesday

    Time Temperature Precipitation Wind Pressure Humidity
    00:00 +18°C° 0 mm 4 mps 698 mmHg 57%
    01:00 +18°C° 0 mm 4 mps 698 mmHg 63%
    02:00 +18°C° 0 mm 4 mps 698 mmHg 69%
    03:00 +17°C° 0 mm 4 mps 698 mmHg 74%
    04:00 +17°C° 0 mm 4 mps 698 mmHg 78%
    05:00 +17°C° 0 mm 4 mps 698 mmHg 82%
    06:00 +17°C° 0 mm 4 mps 698 mmHg 86%
    07:00 +18°C° 0 mm 4 mps 699 mmHg 78%
    08:00 +20°C° 0 mm 4 mps 700 mmHg 69%
    09:00 +22°C° 0 mm 5 mps 700 mmHg 61%
    10:00 +25°C° 0 mm 5 mps 700 mmHg 54%
    11:00 +27°C° 0 mm 4 mps 700 mmHg 47%
    12:00 +29°C° 0 mm 4 mps 701 mmHg 40%
    13:00 +29°C° 0 mm 4 mps 700 mmHg 38%
    14:00 +29°C° 0 mm 3 mps 700 mmHg 36%
    15:00 +30°C° 0 mm 3 mps 700 mmHg 34%
    16:00 +29°C° 0.1 mm 3 mps 700 mmHg 37%
    17:00 +27°C° 0.1 mm 3 mps 700 mmHg 41%
    18:00 +26°C° 0.1 mm 3 mps 700 mmHg 45%
    19:00 +25°C° 0.1 mm 3 mps 700 mmHg 50%
    20:00 +23°C° 0.1 mm 4 mps 701 mmHg 55%
    21:00 +21°C° 0.1 mm 4 mps 701 mmHg 60%
    22:00 +21°C° 0 mm 4 mps 701 mmHg 64%
    23:00 +20°C° 0 mm 3 mps 701 mmHg 69%

    Day after tomorrow, 27 September, Thursday

    Time Temperature Precipitation Wind Pressure Humidity
    00:00 +19°C° 0 mm 3 mps 701 mmHg 73%
    01:00 +19°C° 0 mm 3 mps 701 mmHg 76%
    02:00 +18°C° 0 mm 3 mps 701 mmHg 79%
    03:00 +18°C° 0 mm 2 mps 701 mmHg 82%
    04:00 +17°C° 0 mm 2 mps 701 mmHg 83%
    05:00 +17°C° 0 mm 2 mps 701 mmHg 85%
    06:00 +17°C° 0 mm 2 mps 701 mmHg 86%
    07:00 +19°C° 0 mm 2 mps 701 mmHg 77%
    08:00 +21°C° 0 mm 3 mps 701 mmHg 68%
    09:00 +22°C° 0 mm 3 mps 702 mmHg 59%
    10:00 +25°C° 0 mm 2 mps 702 mmHg 53%
    11:00 +26°C° 0 mm 2 mps 702 mmHg 47%
    12:00 +28°C° 0 mm 2 mps 702 mmHg 40%
    13:00 +29°C° 0.1 mm 1 mps 701 mmHg 38%
    14:00 +29°C° 0.1 mm 1 mps 701 mmHg 36%
    15:00 +30°C° 0.1 mm 1 mps 700 mmHg 34%
    16:00 +28°C° 0 mm 1 mps 700 mmHg 37%
    17:00 +27°C° 0 mm 1 mps 700 mmHg 40%
    18:00 +26°C° 0 mm 1 mps 699 mmHg 43%
    19:00 +25°C° 0 mm 1 mps 700 mmHg 46%
    20:00 +25°C° 0 mm 2 mps 700 mmHg 49%
    21:00 +24°C° 0 mm 2 mps 700 mmHg 52%
    22:00 +23°C° 0 mm 2 mps 699 mmHg 56%
    23:00 +22°C° 0 mm 1 mps 699 mmHg 59%

    28 September, Friday

    Time Temperature Precipitation Wind Pressure Humidity
    00:00 +21°C° 0 mm 1 mps 699 mmHg 63%
    01:00 +21°C° 0 mm 1 mps 698 mmHg 66%
    02:00 +20°C° 0 mm 1 mps 698 mmHg 69%
    03:00 +19°C° 0 mm 1 mps 698 mmHg 72%
    04:00 +19°C° 0 mm 1 mps 697 mmHg 74%
    05:00 +19°C° 0 mm 1 mps 697 mmHg 75%
    06:00 +18°C° 0 mm 1 mps 697 mmHg 77%
    07:00 +20°C° 0 mm 1 mps 697 mmHg 69%
    08:00 +22°C° 0 mm 1 mps 698 mmHg 61%
    09:00 +22°C° 0 mm 0 mps 698 mmHg 53%
    10:00 +26°C° 0 mm 1 mps 698 mmHg 47%
    11:00 +28°C° 0 mm 1 mps 698 mmHg 41%
    12:00 +29°C° 0 mm 1 mps 698 mmHg 35%
    13:00 +29°C° 0 mm 1 mps 697 mmHg 33%
    14:00 +30°C° 0 mm 2 mps 697 mmHg 31%
    15:00 +30°C° 0 mm 2 mps 696 mmHg 28%
    16:00 +29°C° 0 mm 2 mps 696 mmHg 31%
    17:00 +27°C° 0 mm 2 mps 696 mmHg 33%
    18:00 +26°C° 0 mm 2 mps 695 mmHg 36%
    19:00 +25°C° 0 mm 3 mps 695 mmHg 40%
    20:00 +22°C° 0 mm 3 mps 695 mmHg 44%
    21:00 +21°C° 0 mm 3 mps 695 mmHg 48%
    22:00 +20°C° 0 mm 3 mps 695 mmHg 51%
    23:00 +20°C° 0 mm 2 mps 695 mmHg 53%

    29 September, Saturday

    Time Temperature Precipitation Wind Pressure Humidity
    00:00 +19°C° 0 mm 2 mps 695 mmHg 56%
    01:00 +19°C° 0 mm 2 mps 695 mmHg 57%
    02:00 +18°C° 0 mm 2 mps 694 mmHg 59%
    03:00 +18°C° 0 mm 2 mps 694 mmHg 61%
    04:00 +17°C° 0 mm 2 mps 694 mmHg 62%
    05:00 +17°C° 0 mm 2 mps 694 mmHg 63%
    06:00 +17°C° 0 mm 2 mps 694 mmHg 64%
    07:00 +19°C° 0 mm 2 mps 694 mmHg 57%
    08:00 +21°C° 0 mm 2 mps 695 mmHg 50%
    09:00 +24°C° 0 mm 2 mps 695 mmHg 43%
    10:00 +26°C° 0 mm 2 mps 695 mmHg 37%
    11:00 +27°C° 0 mm 2 mps 695 mmHg 32%
    12:00 +29°C° 0 mm 1 mps 695 mmHg 27%
    13:00 +29°C° 0 mm 1 mps 695 mmHg 26%
    14:00 +29°C° 0 mm 1 mps 694 mmHg 25%
    15:00 +29°C° 0 mm 1 mps 694 mmHg 23%
    16:00 +28°C° 0 mm 1 mps 694 mmHg 27%
    17:00 +26°C° 0 mm 1 mps 694 mmHg 30%
    18:00 +25°C° 0 mm 2 mps 694 mmHg 34%
    19:00 +24°C° 0 mm 2 mps 694 mmHg 39%
    20:00 +23°C° 0 mm 2 mps 694 mmHg 44%
    21:00 +20°C° 0 mm 2 mps 694 mmHg 48%
    22:00 +20°C° 0 mm 2 mps 694 mmHg 51%
    23:00 +19°C° 0 mm 2 mps 694 mmHg 53%

    30 September, Sunday

    Time Temperature Precipitation Wind Pressure Humidity
    00:00 +19°C° 0 mm 2 mps 694 mmHg 56%
    01:00 +18°C° 0 mm 2 mps 694 mmHg 57%
    02:00 +18°C° 0 mm 2 mps 694 mmHg 59%
    03:00 +17°C° 0 mm 2 mps 694 mmHg 60%
    04:00 +17°C° 0 mm 2 mps 694 mmHg 61%
    05:00 +17°C° 0 mm 2 mps 695 mmHg 62%
    06:00 +17°C° 0 mm 2 mps 695 mmHg 63%
    07:00 +19°C° 0 mm 2 mps 695 mmHg 56%
    08:00 +21°C° 0 mm 2 mps 696 mmHg 48%
    09:00 +24°C° 0 mm 2 mps 697 mmHg 41%
    10:00 +26°C° 0 mm 2 mps 697 mmHg 37%
    11:00 +27°C° 0 mm 2 mps 697 mmHg 32%
    12:00 +28°C° 0 mm 2 mps 697 mmHg 27%
    13:00 +29°C° 0 mm 3 mps 697 mmHg 26%
    14:00 +29°C° 0 mm 3 mps 697 mmHg 25%
    15:00 +29°C° 0 mm 3 mps 697 mmHg 24%
    16:00 +27°C° 0 mm 4 mps 697 mmHg 30%
    17:00 +26°C° 0 mm 4 mps 697 mmHg 35%
    18:00 +23°C° 0 mm 5 mps 697 mmHg 40%
    19:00 +21°C° 0 mm 4 mps 697 mmHg 46%
    20:00 +20°C° 0 mm 4 mps 697 mmHg 52%
    21:00 +18°C° 0 mm 4 mps 697 mmHg 58%
    22:00 +17°C° 0 mm 3 mps 697 mmHg 60%
    23:00 +16°C° 0 mm 3 mps 697 mmHg 62%
    Show more